Vorticity
7 8 10 11 12 12 12 12 12 12 10 8 8 8 9 9 9 9 9 11 11 9 6 4 3 4 7 8 7 7 7 7 7 7 8 8 7 8 9 9 8 8 7 7 8 6 4 2 2 3 2 2 3 4 5 5 5 5 5 5 6 6 6 6 4 4 3 4 8 10 10 7 5 4 3 2 2 2 2 2 3 3 4 4 4 3 4 4
9 9 10 10 9 10 9 8 6 4 4 4 6 8 10 12 13 11 8 9 11 12 12 8 5 4 4 6 8 8 8 7 7 7 9 8 8 9 10 9 8 8 7 7 7 4 3 3 3 3 3 3 4 5 5 4 5 5 6 6 6 6 5 4 3 3 5 8 10 9 7 5 4 4 3 3 3 2 1 1 2 3 4 4 4 3 4 4
8 8 9 8 7 6 4 3 2 3 4 5 6 8 11 15 19 21 17 13 13 16 17 13 9 6 4 4 6 8 8 7 7 7 8 8 9 11 10 9 8 7 6 6 5 3 2 4 4 3 3 4 4 5 5 5 5 6 6 6 6 5 4 3 3 5 8 10 9 7 6 4 4 4 3 3 2 2 2 2 3 3 3 4 4 3 4 3
7 8 9 10 8 5 4 3 4 5 5 5 4 7 10 10 13 19 19 16 15 18 20 18 13 8 5 5 6 7 7 7 7 8 7 6 8 11 10 8 7 5 6 7 5 3 3 5 4 3 4 4 4 4 4 6 6 6 6 6 5 4 3 3 5 7 8 9 8 7 6 5 5 4 2 2 2 2 2 3 4 3 4 4 4 4 3 3
9 9 9 11 11 9 8 7 6 5 4 5 3 5 9 7 5 8 12 13 12 14 14 14 11 8 7 6 8 8 8 8 7 9 8 8 10 11 10 8 7 5 6 7 4 4 5 5 3 3 4 4 3 3 4 6 6 7 7 5 4 3 3 4 7 8 8 8 7 7 7 6 5 3 4 4 3 2 3 5 4 4 4 4 4 4 3 4
7 8 9 9 10 11 11 9 7 5 4 4 3 5 8 8 6 4 6 8 8 8 7 8 8 8 8 9 10 9 10 11 11 13 9 7 10 10 8 8 7 6 6 6 4 4 5 4 4 4 4 4 3 4 5 7 7 6 6 4 3 3 3 6 8 9 9 8 8 7 6 5 4 4 5 4 3 4 5 4 3 4 4 4 4 4 3 4
8 7 8 7 8 9 10 10 8 7 6 4 3 5 8 10 9 5 4 5 5 5 4 6 7 8 8 9 11 10 11 12 13 14 9 6 8 8 6 7 8 8 6 5 5 5 5 4 4 5 5 4 3 4 6 7 8 6 5 4 2 3 5 8 9 9 9 9 9 8 6 5 5 5 5 4 3 4 4 3 4 4 4 4 3 4 3 4
10 8 8 8 9 9 9 9 10 11 11 9 7 7 8 10 11 9 7 6 5 5 5 5 6 7 7 9 10 10 11 9 8 9 8 7 7 7 7 7 9 9 7 5 5 6 6 5 5 5 5 4 4 5 7 7 7 5 4 4 4 6 8 9 10 8 9 9 8 7 5 6 6 5 5 5 3 3 3 3 4 4 4 4 4 4 4 5
10 10 11 10 9 9 9 9 10 11 14 14 13 11 10 10 11 12 11 10 8 7 7 8 9 9 8 10 10 10 9 7 5 6 8 9 6 6 7 7 9 8 6 5 5 6 7 5 5 6 5 4 5 7 9 7 5 5 3 3 5 7 9 9 9 8 8 8 7 6 6 7 7 5 4 4 4 3 4 4 4 4 4 4 4 4 5 6
10 10 10 9 9 9 9 10 11 12 14 14 14 13 11 11 13 14 13 11 10 10 10 10 10 9 9 10 10 8 7 5 6 6 7 8 5 5 6 6 8 7 6 6 6 7 6 5 6 6 4 6 8 9 9 6 5 5 4 5 7 8 10 10 9 9 8 7 7 6 5 7 7 4 3 4 5 4 5 4 4 5 4 4 5 5 5 6
9 9 8 9 9 10 11 11 11 12 12 10 11 12 12 12 12 12 11 10 11 11 9 9 7 8 11 11 9 8 8 7 6 8 8 6 5 4 5 6 8 9 8 7 7 7 6 6 6 5 6 8 9 8 7 6 5 6 6 6 8 8 9 10 10 10 8 7 7 4 5 8 6 5 5 5 5 5 5 5 5 6 5 5 5 6 6 5
8 8 9 10 10 11 12 11 10 10 10 10 9 9 10 10 8 7 7 8 9 9 8 7 6 9 12 11 9 9 9 8 7 8 8 7 6 5 5 8 10 10 8 7 8 7 6 6 7 6 8 9 8 7 7 6 6 6 7 7 8 8 8 9 9 9 8 7 7 5 7 11 8 6 6 5 5 6 7 7 7 6 5 6 7 7 6 4
8 8 9 10 10 11 11 11 10 10 9 11 10 9 9 8 6 4 5 6 6 7 6 5 8 12 12 10 9 8 7 8 8 7 7 7 7 7 9 11 10 9 7 7 7 7 7 7 8 8 8 8 7 6 7 7 7 6 7 7 8 8 8 8 8 8 8 7 8 7 7 10 8 6 6 6 6 7 9 10 8 7 7 8 9 7 5 4
7 9 10 10 10 10 11 10 9 9 7 6 9 11 11 11 8 7 9 10 9 9 7 8 12 12 8 6 6 6 6 8 8 6 6 7 9 10 11 9 8 7 7 7 7 7 8 8 8 7 7 7 6 7 7 7 6 6 6 7 6 7 7 7 7 6 7 6 7 8 6 7 8 8 7 7 7 8 12 12 8 8 9 9 8 6 4 4
7 8 9 9 10 10 10 10 8 8 7 4 4 7 10 12 11 10 12 14 15 15 13 13 12 8 6 6 6 7 8 7 6 5 7 8 8 9 8 7 7 7 7 7 8 8 8 8 7 7 7 6 6 7 7 6 6 6 6 6 6 6 6 6 5 5 6 6 6 7 6 4 8 10 8 7 7 9 13 12 9 9 9 8 7 6 5 4
7 7 8 8 9 9 9 10 7 5 5 4 5 7 8 10 10 10 12 15 14 14 15 14 12 10 10 9 9 10 9 7 6 6 6 6 6 7 6 7 7 7 7 7 7 8 8 7 7 6 6 5 5 5 5 5 5 6 6 6 6 6 6 5 6 6 6 6 5 6 6 4 6 9 8 8 7 10 13 10 8 8 8 7 6 6 5 4
7 8 9 9 9 8 8 10 9 6 5 4 7 9 7 8 10 8 13 16 11 10 12 10 9 11 11 10 9 8 6 6 6 5 5 5 6 7 6 6 6 7 7 7 7 8 8 7 6 5 4 4 4 4 4 4 4 5 5 6 6 6 6 6 5 6 5 5 5 6 6 5 7 9 9 7 8 10 10 8 8 8 7 7 7 6 4 5
8 9 9 9 8 9 10 11 11 10 9 7 8 10 7 9 9 7 15 15 7 7 7 4 6 9 9 8 7 4 4 5 5 5 6 7 7 6 6 5 6 7 7 7 8 8 7 6 5 3 3 3 3 4 3 4 4 4 5 5 5 5 6 6 5 4 5 4 6 7 6 4 6 8 8 7 9 10 8 8 9 8 8 8 6 5 4 6
8 8 8 7 6 8 11 12 12 9 7 5 7 11 12 14 12 11 18 15 6 6 3 3 8 9 8 8 6 5 5 4 4 6 7 7 7 5 5 5 6 7 7 8 8 7 6 5 4 2 3 3 3 3 3 3 4 4 5 5 5 4 4 5 5 4 6 5 4 7 7 5 5 6 7 8 9 9 8 9 8 7 8 6 4 4 5 7
8 8 8 8 6 7 9 11 13 10 6 6 9 15 19 19 14 11 14 12 6 5 3 5 10 11 11 10 6 4 4 5 6 7 7 7 6 5 4 5 6 6 7 8 7 7 6 5 4 3 4 4 2 3 3 3 3 4 5 5 5 4 3 5 5 5 7 6 4 7 8 6 7 8 8 8 8 9 7 6 6 7 5 4 5 6 7 8
10 9 9 7 6 7 8 10 15 17 13 11 13 17 19 17 11 8 10 10 7 6 7 12 15 12 9 5 3 5 7 8 8 8 7 6 5 4 4 4 5 6 7 7 7 6 6 5 4 4 4 3 2 3 3 3 3 4 5 5 5 4 4 5 6 7 7 7 6 7 8 7 9 10 8 8 8 6 5 6 7 6 4 5 7 7 8 10
10 9 9 6 6 7 8 9 15 23 20 14 14 14 13 10 8 8 9 8 8 10 12 14 12 7 3 2 5 8 9 9 9 9 7 5 5 4 4 5 6 5 5 6 7 6 6 5 5 4 3 2 3 3 4 4 4 5 5 5 4 5 6 6 6 7 7 8 6 6 8 5 6 9 8 8 6 4 5 7 6 4 6 8 8 8 9 8
10 10 8 6 6 7 9 9 12 18 17 10 8 8 7 8 8 8 8 9 11 12 10 8 5 4 5 6 7 10 11 11 9 8 6 5 5 3 3 4 4 4 5 5 6 6 5 5 5 4 3 2 3 3 4 4 4 5 5 5 5 6 7 6 6 7 7 7 6 7 7 2 3 9 8 4 3 4 6 7 6 7 9 9 9 8 8 7
10 9 8 5 4 5 7 9 10 13 13 7 3 4 8 9 7 7 10 12 12 9 6 6 7 8 9 9 8 11 12 10 8 8 6 5 5 3 3 3 3 4 4 4 4 5 5 5 4 3 3 3 3 3 4 5 5 4 5 6 6 7 7 7 7 7 6 6 7 7 7 2 1 6 7 5 5 5 6 7 8 9 9 9 7 6 7 8
10 9 8 6 4 4 5 7 9 10 10 7 5 5 8 7 5 8 12 11 8 6 6 7 8 8 9 9 9 10 10 9 7 7 6 5 5 4 3 3 4 4 3 4 5 6 5 5 3 3 3 3 3 4 5 5 5 4 6 7 7 6 7 7 8 7 6 5 4 4 7 4 2 6 8 7 7 6 7 9 9 9 8 7 5 6 9 9
10 9 9 7 4 4 4 5 7 8 8 8 8 9 7 5 6 10 13 9 4 4 5 6 7 8 9 9 9 9 10 8 7 7 6 6 5 4 3 3 4 4 5 5 5 5 4 4 3 4 3 3 4 4 5 5 5 6 7 7 7 7 7 6 6 6 5 4 2 4 7 5 4 9 9 6 6 6 9 12 10 8 6 4 5 9 10 9
9 9 9 8 5 4 4 5 6 7 7 7 11 12 9 5 6 10 11 7 4 6 7 7 8 10 10 10 10 11 9 7 7 6 6 5 5 4 4 5 5 5 6 6 5 5 5 4 4 4 3 4 5 5 5 6 6 7 6 6 7 6 6 6 5 4 3 3 3 4 5 5 7 10 7 5 7 7 11 12 7 5 5 5 9 10 10 10
8 8 9 8 6 6 6 5 6 7 7 6 9 12 11 9 9 12 10 4 3 7 7 7 8 9 10 10 10 11 10 8 7 7 7 6 5 5 4 5 6 5 6 5 4 5 5 5 4 4 5 5 5 5 6 7 7 7 6 7 6 5 5 4 3 3 4 4 4 5 5 5 7 10 8 7 7 8 10 8 4 5 7 8 11 11 11 12
8 9 9 7 7 11 12 8 4 5 6 5 5 9 13 13 11 8 5 1 2 6 7 8 9 9 11 14 13 10 10 10 9 8 7 5 4 4 4 5 6 5 6 5 5 5 5 5 5 5 6 6 6 7 7 7 7 7 7 6 6 5 4 3 3 4 5 5 6 6 7 5 6 10 10 9 8 9 9 6 5 7 9 11 12 11 10 9
10 13 10 7 7 12 14 12 7 6 6 4 3 8 13 13 9 4 2 3 4 5 6 9 11 10 11 14 13 10 9 8 7 6 5 4 5 5 5 5 6 6 6 6 6 5 6 6 6 6 7 7 7 8 8 8 7 7 6 6 5 4 4 4 4 5 5 6 6 5 5 5 8 11 11 9 9 9 9 7 8 11 13 13 10 8 8 8
12 13 8 6 7 9 10 10 8 8 8 5 3 6 11 11 9 5 3 4 4 6 9 10 11 11 10 10 9 10 10 8 7 6 5 6 5 5 6 5 6 6 5 6 7 7 7 7 7 8 8 8 8 8 8 7 6 6 5 5 5 5 5 5 4 5 6 6 5 5 5 7 11 14 11 8 8 9 8 9 12 15 12 9 7 8 10 10
8 9 6 4 8 10 9 7 7 7 8 7 4 4 8 9 7 5 3 4 5 7 9 9 10 9 9 10 8 8 8 7 6 5 4 5 4 6 6 5 6 6 6 7 7 7 7 8 9 9 8 8 8 7 6 6 6 5 5 6 6 6 6 5 5 5 5 5 5 6 7 10 13 13 10 8 7 8 11 14 14 10 7 7 9 10 11 11
1 7 7 4 8 10 9 7 6 8 9 9 6 4 8 10 8 6 3 3 4 6 8 9 10 9 8 8 8 8 6 5 5 3 3 5 5 6 7 6 7 8 7 7 6 8 8 9 8 7 7 7 6 6 6 6 5 6 7 7 7 8 8 7 6 5 5 5 6 7 10 12 13 13 11 9 10 12 15 14 10 7 7 9 10 10 10 8
-2 4 6 4 6 8 8 7 6 7 10 11 7 5 8 11 8 5 3 3 4 7 9 9 11 12 10 8 8 9 8 7 7 5 6 7 6 7 8 8 9 9 9 8 8 8 6 6 6 5 6 6 6 6 6 7 7 7 7 6 7 8 7 7 8 8 8 6 7 9 11 12 13 14 13 12 13 15 14 11 8 8 8 10 12 10 7 4
0 3 7 7 5 4 6 7 6 7 9 11 8 5 8 10 8 5 4 4 7 9 9 9 10 11 11 10 9 9 9 8 8 7 7 7 7 8 9 8 9 9 9 8 8 7 5 5 6 5 6 6 6 7 6 7 6 5 6 6 7 7 6 7 8 9 10 7 7 11 11 11 14 15 13 12 13 12 10 8 7 7 9 12 11 6 4 5
3 5 9 10 7 5 5 6 7 7 8 11 9 7 9 10 7 4 4 6 8 9 9 10 12 10 9 10 9 9 9 7 8 8 8 9 8 9 8 8 8 8 8 7 7 7 6 5 6 5 6 6 6 6 6 6 6 7 8 8 8 7 7 9 8 9 9 6 8 12 13 16 19 16 12 12 12 10 8 6 6 9 12 11 6 4 6 8
5 6 7 7 7 6 6 6 6 7 9 11 9 7 10 9 6 4 5 8 9 9 10 10 11 10 8 9 8 8 9 9 9 9 9 9 9 8 8 8 8 7 7 6 6 7 6 5 5 6 7 7 5 6 6 7 8 8 9 9 8 9 10 9 8 10 10 8 11 14 14 18 17 13 12 12 10 7 6 6 9 12 10 6 5 6 7 7
8 9 7 8 10 10 10 9 6 6 9 11 9 9 10 7 5 6 7 10 9 10 11 9 10 9 7 8 8 9 10 9 10 9 8 8 8 8 8 7 7 6 6 6 6 6 6 5 5 5 6 6 5 7 8 9 9 9 9 10 11 11 12 11 11 12 12 11 13 13 13 14 13 12 12 10 7 6 7 9 10 9 6 5 6 7 7 9
9 10 10 12 13 11 12 9 6 7 10 11 10 9 9 6 7 9 10 10 9 9 10 9 9 9 8 9 8 8 9 8 9 9 8 8 7 7 7 6 7 6 6 6 5 5 6 6 6 5 6 7 7 10 10 10 9 10 12 12 12 13 12 12 12 12 12 11 11 10 9 11 14 15 10 6 5 6 7 7 7 6 5 5 7 8 8 8
10 11 10 10 10 9 10 9 9 11 11 11 9 7 8 10 11 11 10 9 8 8 8 8 8 8 8 9 8 8 8 8 8 8 7 8 7 7 6 5 5 5 5 5 5 6 6 6 7 8 8 9 11 13 12 12 13 14 14 14 14 14 12 11 11 11 11 9 9 9 8 11 16 13 6 4 6 6 6 7 8 7 5 6 8 9 7 7
9 8 8 9 9 9 11 11 11 11 9 8 8 9 11 11 11 10 9 8 8 8 8 8 8 8 8 8 8 7 7 7 8 7 7 7 6 6 6 5 5 5 6 6 6 7 8 8 9 11 12 14 16 16 15 16 16 15 15 14 13 11 10 9 9 10 10 8 10 9 7 11 13 6 4 7 7 6 7 8 7 7 8 8 9 9 8 8
8 9 10 10 10 9 10 10 9 9 8 9 10 10 10 9 8 8 8 8 8 8 8 8 7 8 7 7 7 7 7 6 7 8 7 6 5 5 5 5 6 6 6 6 7 8 9 10 13 15 18 20 18 16 16 15 13 13 13 12 10 9 9 9 9 10 9 9 10 6 2 7 8 4 6 8 6 6 8 7 7 9 10 8 8 9 8 6
9 10 9 9 9 10 9 9 8 9 9 10 10 9 8 7 7 7 7 8 8 7 7 6 7 7 7 7 7 7 7 6 6 5 4 4 5 6 6 6 6 6 7 8 9 11 12 14 17 18 18 17 14 11 11 10 10 11 11 9 9 10 10 10 10 8 6 8 8 3 2 6 6 6 8 5 4 8 9 7 8 9 9 8 8 8 6 5
9 8 8 9 9 10 9 8 8 9 9 9 9 8 7 7 7 7 7 6 6 6 6 6 6 6 6 6 7 7 6 6 5 4 4 5 5 6 6 6 6 7 9 10 12 14 17 18 17 15 13 12 11 10 10 11 13 12 11 11 10 10 9 9 8 5 5 7 6 3 4 7 7 9 9 4 6 10 9 8 9 9 9 8 7 6 5 4
8 9 9 10 9 9 8 9 8 8 8 8 7 7 6 6 6 6 6 6 6 6 6 6 6 6 7 7 7 6 5 5 5 4 5 5 5 5 6 6 8 10 11 14 16 17 17 15 12 10 10 10 10 10 12 14 15 14 12 10 8 8 8 7 6 7 6 5 6 7 5 5 9 10 6 5 8 9 7 8 9 9 8 5 4 5 4 4
10 9 9 8 8 7 8 8 8 7 6 6 6 6 6 6 6 5 5 6 6 6 7 8 8 8 8 6 5 4 4 4 5 5 5 5 5 6 7 9 12 14 15 16 16 14 13 11 9 9 10 10 11 10 11 11 11 10 8 7 7 8 7 8 7 8 6 2 6 10 4 4 11 9 5 6 7 7 8 9 8 7 5 4 4 5 5 6
8 8 7 7 7 7 7 7 7 6 6 5 5 5 5 5 5 6 7 7 8 9 9 9 7 6 4 3 3 3 4 5 5 4 4 6 7 9 12 14 15 16 15 14 12 10 10 10 9 11 12 12 10 9 9 8 7 7 7 7 7 6 7 9 8 6 5 3 7 9 5 7 12 8 5 7 7 7 8 7 6 6 5 5 6 6 7 8
7 7 7 6 6 6 7 6 5 5 5 5 5 5 6 6 7 9 9 10 9 8 7 5 4 3 2 2 4 5 5 5 4 5 7 10 12 14 16 16 15 14 13 11 10 9 10 11 11 12 12 10 8 8 8 8 7 7 6 6 6 6 7 8 6 5 7 7 8 9 8 10 10 6 6 8 7 8 7 6 6 7 6 6 7 6 7 8
6 6 6 5 5 6 5 4 5 5 5 5 7 8 10 10 11 10 8 7 6 5 4 3 2 2 3 5 6 5 5 5 6 10 13 15 16 16 15 14 13 12 10 10 11 10 11 11 11 10 10 9 9 9 8 8 7 6 6 6 6 6 6 6 8 10 11 10 9 8 9 10 7 5 7 8 7 7 6 6 7 7 7 7 7 7 7 7
5 5 5 5 4 4 5 5 6 8 9 10 11 12 11 9 7 6 5 5 4 3 3 2 3 5 6 6 5 4 6 9 13 16 17 17 16 14 13 13 11 11 11 11 11 10 10 10 9 9 10 10 10 9 7 6 6 5 6 6 6 6 7 10 13 14 10 7 8 7 8 7 4 4 6 7 7 7 6 7 7 7 7 6 7 7 6 6
4 5 5 5 7 8 10 11 12 12 13 12 9 7 5 3 3 4 4 4 3 3 4 5 6 6 5 5 6 9 14 16 18 18 16 15 14 12 12 12 11 11 11 11 10 9 9 9 9 10 10 9 7 6 6 5 5 7 7 7 8 9 10 12 13 13 8 6 6 6 5 5 5 7 8 6 5 5 6 6 7 7 6 5 6 7 6 7
8 9 11 12 13 14 13 12 10 8 7 5 4 2 2 3 4 4 4 3 4 5 6 6 6 5 7 10 14 17 19 18 17 16 14 13 13 12 12 12 11 11 10 9 9 9 10 10 9 8 7 6 5 5 7 7 8 9 8 8 10 10 10 11 11 9 7 6 8 7 6 7 9 9 8 6 4 2 3 5 6 8 8 7 6 6 7 7
Height
5832 5832 5832 5833 5834 5834 5834 5834 5834 5835 5835 5835 5835 5834 5834 5834 5834 5834 5834 5834 5836 5836 5837 5838 5838 5838 5838 5838 5838 5838 5838 5838 5838 5838 5838 5838 5838 5838 5838 5838 5837 5837 5837 5837 5838 5838 5838 5838 5838 5838 5838 5838 5838 5838 5838 5838 5837 5836 5836 5836 5835 5834 5834 5833 5832 5832 5831 5830 5830 5828 5828 5827 5826 5826 5825 5824 5824 5822 5821 5820 5819 5818 5816 5814 5813 5812 5810 5808
5831 5831 5832 5832 5832 5833 5833 5833 5834 5834 5834 5834 5833 5833 5832 5832 5832 5832 5832 5832 5834 5834 5835 5836 5836 5836 5837 5837 5837 5837 5837 5837 5837 5838 5837 5837 5836 5836 5836 5836 5836 5836 5836 5836 5836 5836 5837 5837 5838 5838 5838 5838 5838 5837 5837 5836 5836 5836 5835 5834 5834 5833 5832 5832 5831 5830 5830 5828 5828 5826 5826 5825 5824 5824 5823 5822 5821 5820 5818 5818 5816 5815 5813 5812 5810 5808 5806 5805
5830 5830 5830 5830 5831 5832 5832 5832 5832 5832 5832 5832 5831 5831 5830 5830 5830 5830 5830 5831 5832 5832 5833 5834 5834 5835 5835 5836 5836 5836 5836 5836 5836 5836 5836 5836 5836 5836 5836 5836 5836 5836 5836 5836 5836 5836 5836 5836 5836 5836 5836 5836 5836 5836 5836 5836 5835 5834 5834 5832 5832 5832 5830 5830 5830 5828 5828 5826 5826 5825 5824 5823 5822 5822 5820 5820 5818 5817 5816 5815 5814 5812 5810 5808 5807 5806 5804 5802
5828 5829 5829 5830 5830 5830 5830 5830 5830 5830 5830 5830 5830 5830 5829 5829 5828 5828 5829 5830 5830 5830 5831 5832 5832 5833 5834 5834 5834 5834 5834 5835 5835 5835 5835 5835 5835 5835 5835 5835 5835 5835 5835 5835 5836 5836 5836 5836 5836 5836 5836 5836 5835 5835 5834 5834 5834 5832 5832 5832 5830 5830 5829 5828 5828 5826 5826 5825 5824 5823 5822 5821 5820 5820 5818 5817 5816 5814 5814 5812 5810 5809 5808 5806 5804 5802 5800 5798
5828 5828 5828 5828 5828 5828 5828 5828 5828 5828 5828 5828 5828 5828 5828 5828 5828 5828 5828 5828 5828 5829 5830 5830 5831 5832 5832 5832 5832 5833 5833 5834 5834 5834 5834 5834 5834 5834 5834 5834 5834 5834 5834 5834 5834 5834 5834 5834 5834 5834 5834 5834 5834 5834 5833 5833 5832 5831 5830 5830 5829 5828 5828 5827 5826 5825 5824 5823 5822 5821 5820 5819 5818 5817 5816 5814 5812 5812 5811 5809 5808 5806 5804 5802 5800 5798 5796 5795
5826 5826 5827 5827 5827 5827 5827 5828 5828 5828 5828 5828 5827 5827 5827 5827 5826 5827 5827 5827 5828 5828 5828 5829 5830 5830 5830 5830 5831 5832 5832 5832 5832 5832 5832 5832 5833 5833 5834 5834 5834 5834 5834 5834 5834 5834 5834 5834 5834 5834 5833 5833 5832 5832 5832 5831 5830 5830 5829 5828 5828 5827 5826 5825 5824 5823 5822 5821 5820 5819 5818 5817 5816 5814 5814 5812 5810 5809 5808 5806 5804 5802 5801 5799 5797 5795 5793 5791
5826 5826 5826 5826 5826 5826 5826 5826 5826 5826 5826 5826 5826 5826 5826 5826 5826 5826 5826 5826 5826 5827 5828 5828 5828 5828 5829 5830 5830 5830 5830 5830 5830 5830 5831 5832 5832 5832 5832 5832 5832 5832 5832 5832 5832 5832 5832 5832 5832 5832 5832 5832 5831 5830 5830 5830 5829 5828 5828 5827 5826 5825 5824 5823 5822 5822 5820 5819 5818 5817 5816 5814 5813 5812 5810 5808 5807 5806 5805 5803 5801 5800 5798 5796 5794 5791 5789 5787
5824 5824 5824 5824 5824 5824 5824 5824 5824 5824 5824 5824 5824 5824 5824 5825 5825 5825 5825 5826 5826 5826 5826 5826 5827 5828 5828 5828 5828 5828 5829 5829 5829 5829 5830 5830 5830 5831 5831 5832 5832 5832 5832 5832 5832 5832 5832 5831 5831 5830 5830 5830 5830 5829 5828 5828 5827 5826 5826 5825 5824 5824 5822 5821 5820 5819 5818 5817 5816 5814 5813 5812 5810 5808 5806 5805 5804 5804 5802 5800 5798 5796 5794 5792 5790 5788 5785 5783
5824 5824 5824 5824 5824 5824 5824 5824 5823 5823 5823 5823 5823 5823 5823 5824 5824 5824 5824 5824 5824 5825 5825 5826 5826 5826 5826 5826 5827 5828 5828 5828 5828 5828 5828 5829 5830 5830 5830 5830 5830 5830 5830 5830 5830 5830 5830 5830 5830 5830 5829 5828 5828 5828 5827 5826 5826 5825 5824 5824 5822 5822 5820 5819 5818 5817 5816 5814 5814 5812 5811 5810 5808 5805 5804 5802 5801 5800 5798 5797 5794 5792 5790 5788 5786 5784 5782 5779
5822 5823 5822 5822 5822 5822 5822 5822 5822 5822 5822 5822 5822 5822 5822 5822 5822 5822 5822 5822 5823 5824 5824 5824 5824 5824 5825 5826 5826 5826 5826 5826 5826 5826 5827 5828 5828 5828 5829 5829 5829 5830 5830 5830 5830 5830 5829 5829 5828 5828 5828 5827 5826 5826 5826 5824 5824 5824 5822 5822 5820 5820 5818 5817 5816 5814 5814 5812 5811 5810 5808 5807 5804 5802 5800 5800 5798 5796 5795 5793 5791 5788 5786 5784 5782 5780 5778 5775
5822 5822 5822 5822 5822 5822 5822 5821 5821 5821 5821 5820 5820 5820 5820 5820 5820 5820 5821 5821 5822 5822 5822 5822 5822 5824 5824 5824 5824 5824 5825 5825 5825 5826 5826 5826 5827 5828 5828 5828 5828 5828 5828 5828 5828 5828 5828 5828 5827 5826 5826 5826 5825 5824 5824 5823 5822 5822 5821 5820 5819 5818 5816 5815 5814 5812 5811 5810 5808 5807 5806 5804 5802 5799 5798 5796 5795 5793 5791 5789 5787 5784 5782 5780 5778 5776 5774 5770
5822 5821 5821 5821 5820 5820 5820 5820 5820 5820 5820 5820 5820 5820 5820 5820 5820 5820 5820 5820 5820 5820 5820 5821 5822 5822 5822 5823 5824 5824 5824 5824 5824 5824 5824 5825 5826 5826 5826 5827 5828 5828 5827 5827 5827 5826 5826 5826 5826 5825 5824 5824 5824 5823 5822 5822 5821 5820 5819 5818 5817 5816 5814 5813 5812 5810 5808 5808 5806 5804 5804 5802 5798 5796 5794 5793 5791 5789 5787 5785 5782 5780 5777 5775 5774 5772 5769 5766
5820 5820 5820 5820 5820 5820 5820 5820 5819 5819 5819 5819 5818 5818 5818 5818 5818 5818 5818 5818 5819 5819 5820 5820 5820 5821 5822 5822 5822 5822 5823 5823 5823 5823 5824 5824 5825 5826 5826 5826 5826 5826 5826 5826 5826 5825 5825 5824 5824 5824 5823 5822 5822 5822 5821 5820 5819 5818 5818 5816 5815 5814 5812 5810 5809 5808 5806 5804 5803 5802 5801 5800 5796 5793 5791 5789 5787 5784 5783 5781 5778 5775 5772 5771 5770 5767 5764 5762
5820 5820 5820 5820 5819 5818 5818 5818 5818 5818 5818 5818 5818 5818 5817 5817 5817 5817 5817 5817 5818 5818 5818 5818 5819 5820 5820 5821 5821 5822 5822 5822 5822 5822 5823 5824 5824 5824 5824 5824 5824 5824 5824 5824 5824 5824 5824 5823 5822 5822 5822 5821 5820 5820 5819 5818 5817 5816 5816 5814 5812 5812 5810 5808 5806 5805 5804 5802 5800 5798 5798 5797 5794 5791 5788 5786 5783 5782 5780 5778 5774 5770 5768 5767 5765 5762 5760 5756
5819 5819 5818 5818 5818 5818 5818 5817 5817 5817 5817 5816 5816 5816 5816 5816 5816 5816 5816 5816 5816 5816 5817 5818 5818 5819 5820 5820 5820 5820 5821 5822 5822 5822 5822 5822 5823 5823 5824 5824 5824 5824 5823 5822 5822 5822 5822 5821 5821 5820 5820 5820 5819 5818 5818 5816 5815 5814 5812 5812 5810 5809 5808 5806 5804 5802 5801 5799 5798 5796 5794 5793 5790 5788 5785 5782 5779 5778 5776 5774 5770 5766 5764 5762 5760 5758 5755 5752
5818 5818 5818 5818 5818 5817 5816 5816 5816 5816 5816 5815 5815 5815 5814 5814 5814 5815 5815 5815 5815 5816 5816 5816 5818 5818 5818 5819 5820 5820 5820 5820 5821 5821 5821 5822 5822 5822 5822 5822 5822 5822 5822 5821 5821 5820 5820 5820 5820 5819 5818 5818 5817 5816 5816 5814 5812 5812 5810 5809 5808 5806 5804 5803 5801 5800 5798 5796 5794 5792 5790 5790 5788 5784 5781 5778 5775 5774 5772 5768 5764 5762 5760 5758 5755 5753 5750 5747
5818 5818 5818 5817 5816 5816 5816 5815 5814 5814 5814 5814 5814 5814 5814 5814 5814 5814 5814 5814 5814 5815 5816 5816 5816 5817 5818 5818 5818 5819 5820 5820 5820 5820 5820 5820 5821 5822 5822 5821 5821 5820 5820 5820 5820 5819 5818 5818 5818 5817 5816 5816 5815 5814 5813 5812 5810 5808 5808 5806 5804 5803 5802 5800 5798 5796 5794 5792 5791 5789 5787 5786 5784 5780 5777 5774 5771 5769 5767 5764 5760 5758 5756 5753 5750 5748 5745 5742
5818 5817 5816 5816 5816 5815 5814 5814 5814 5813 5813 5812 5812 5812 5812 5812 5812 5812 5813 5814 5814 5814 5815 5816 5816 5816 5817 5817 5818 5818 5818 5818 5818 5819 5819 5820 5820 5820 5820 5820 5819 5819 5818 5818 5818 5818 5817 5816 5816 5816 5814 5814 5812 5812 5810 5809 5808 5806 5804 5803 5802 5800 5798 5796 5794 5792 5791 5788 5787 5784 5782 5782 5780 5777 5772 5769 5767 5764 5762 5759 5756 5754 5751 5748 5746 5744 5740 5737
5817 5816 5816 5815 5814 5814 5814 5813 5812 5812 5812 5812 5812 5812 5812 5812 5812 5812 5812 5813 5814 5814 5815 5815 5816 5816 5816 5816 5816 5817 5817 5818 5818 5818 5818 5818 5818 5818 5818 5818 5818 5817 5817 5816 5816 5816 5816 5815 5814 5814 5812 5812 5810 5809 5808 5806 5804 5803 5801 5800 5798 5796 5795 5792 5790 5789 5786 5784 5783 5780 5778 5777 5775 5772 5768 5765 5763 5760 5757 5754 5752 5750 5747 5744 5742 5738 5735 5732
5816 5816 5815 5814 5814 5813 5812 5812 5812 5811 5811 5811 5810 5810 5810 5810 5811 5812 5812 5812 5814 5814 5814 5814 5814 5815 5815 5816 5816 5816 5816 5816 5816 5817 5817 5817 5818 5817 5817 5816 5816 5816 5815 5815 5814 5814 5814 5813 5812 5811 5810 5809 5808 5806 5805 5803 5802 5800 5798 5796 5795 5793 5792 5790 5787 5786 5783 5780 5780 5776 5774 5772 5770 5768 5764 5761 5758 5756 5753 5750 5748 5746 5742 5740 5737 5734 5730 5726
5816 5815 5814 5814 5813 5812 5812 5812 5810 5810 5810 5810 5810 5810 5810 5810 5811 5812 5812 5812 5813 5814 5814 5814 5814 5814 5814 5814 5815 5815 5815 5815 5816 5816 5816 5816 5816 5816 5816 5815 5814 5814 5814 5813 5812 5812 5812 5810 5810 5808 5808 5806 5805 5804 5802 5800 5798 5796 5795 5793 5792 5790 5788 5786 5784 5782 5779 5777 5775 5772 5770 5768 5766 5764 5760 5757 5754 5752 5748 5746 5744 5741 5738 5735 5732 5728 5725 5722
5815 5814 5814 5813 5812 5812 5812 5811 5810 5810 5810 5810 5810 5810 5810 5810 5811 5812 5812 5812 5812 5813 5813 5813 5813 5813 5814 5814 5814 5814 5814 5814 5814 5814 5814 5814 5814 5814 5814 5814 5813 5812 5812 5811 5810 5810 5809 5808 5807 5806 5805 5804 5802 5800 5798 5797 5795 5794 5792 5790 5788 5786 5784 5782 5780 5778 5776 5773 5771 5769 5766 5764 5762 5760 5756 5752 5750 5746 5744 5742 5738 5736 5733 5730 5726 5723 5720 5716
5814 5814 5813 5812 5812 5812 5811 5810 5810 5810 5809 5810 5810 5810 5810 5810 5811 5811 5812 5812 5812 5812 5812 5812 5812 5812 5812 5812 5812 5812 5812 5812 5812 5813 5812 5813 5812 5812 5812 5812 5811 5810 5810 5809 5808 5808 5807 5806 5804 5803 5802 5800 5799 5798 5796 5794 5792 5790 5788 5786 5784 5782 5780 5778 5776 5774 5772 5769 5766 5764 5762 5760 5758 5756 5752 5748 5745 5742 5739 5736 5733 5731 5728 5724 5721 5718 5714 5710
5813 5812 5812 5812 5811 5811 5810 5810 5810 5810 5810 5810 5810 5810 5810 5810 5811 5811 5811 5811 5811 5811 5812 5811 5811 5811 5811 5811 5811 5812 5812 5811 5811 5811 5811 5811 5811 5810 5810 5810 5809 5808 5808 5806 5806 5806 5804 5803 5802 5800 5799 5798 5796 5794 5792 5790 5788 5787 5785 5782 5780 5778 5776 5774 5772 5770 5767 5765 5762 5760 5758 5755 5752 5750 5748 5744 5740 5737 5734 5730 5727 5725 5722 5718 5715 5712 5708 5705
5812 5812 5811 5811 5810 5810 5810 5810 5810 5810 5809 5810 5810 5810 5810 5810 5810 5810 5810 5810 5810 5810 5810 5810 5810 5810 5810 5810 5810 5810 5810 5810 5810 5810 5810 5809 5809 5808 5808 5808 5807 5806 5805 5804 5804 5802 5802 5800 5798 5798 5796 5794 5792 5791 5788 5786 5785 5784 5782 5779 5776 5774 5772 5770 5767 5765 5762 5761 5758 5756 5753 5750 5747 5744 5742 5738 5734 5732 5728 5724 5722 5719 5716 5712 5709 5706 5703 5700
5810 5810 5810 5810 5810 5810 5810 5810 5810 5809 5809 5809 5810 5810 5810 5810 5810 5810 5810 5810 5810 5810 5810 5809 5809 5809 5809 5809 5809 5808 5808 5808 5808 5808 5808 5808 5807 5806 5806 5806 5804 5804 5803 5802 5801 5800 5798 5797 5796 5794 5792 5791 5790 5788 5785 5783 5781 5780 5778 5776 5773 5770 5768 5766 5764 5760 5758 5756 5754 5752 5747 5745 5742 5738 5736 5734 5730 5727 5724 5719 5716 5714 5710 5706 5703 5700 5698 5694
5810 5810 5810 5810 5810 5810 5810 5810 5809 5809 5808 5809 5809 5809 5810 5810 5810 5810 5809 5810 5809 5808 5808 5808 5808 5808 5808 5808 5808 5807 5806 5806 5806 5806 5806 5806 5805 5804 5804 5804 5802 5802 5800 5799 5798 5797 5796 5794 5792 5791 5790 5788 5786 5784 5782 5780 5777 5776 5774 5772 5769 5766 5764 5762 5759 5756 5754 5752 5750 5748 5742 5739 5738 5734 5732 5728 5724 5722 5718 5714 5710 5708 5704 5700 5696 5694 5692 5690
5808 5809 5809 5809 5809 5808 5809 5809 5809 5808 5808 5808 5809 5808 5808 5808 5808 5808 5808 5808 5808 5808 5808 5807 5807 5806 5806 5806 5806 5806 5805 5804 5804 5804 5804 5804 5803 5802 5802 5801 5800 5798 5798 5796 5795 5794 5792 5790 5790 5788 5786 5784 5782 5780 5778 5776 5774 5772 5770 5768 5765 5762 5760 5758 5754 5752 5750 5746 5744 5743 5738 5734 5732 5730 5727 5724 5720 5716 5712 5708 5705 5701 5697 5694 5691 5688 5686 5684
5808 5808 5808 5808 5808 5808 5808 5808 5808 5808 5808 5808 5808 5808 5808 5808 5808 5808 5808 5808 5807 5806 5806 5806 5806 5805 5804 5804 5804 5804 5803 5803 5803 5802 5802 5802 5801 5800 5799 5798 5797 5796 5795 5794 5792 5791 5790 5788 5786 5784 5782 5781 5778 5776 5774 5772 5770 5768 5766 5763 5760 5758 5756 5753 5750 5747 5744 5742 5739 5736 5734 5730 5727 5724 5722 5718 5716 5712 5706 5702 5698 5695 5691 5688 5686 5683 5680 5678
5807 5808 5808 5808 5808 5808 5807 5808 5808 5808 5808 5808 5808 5808 5807 5807 5807 5806 5806 5806 5806 5806 5805 5805 5804 5804 5803 5802 5802 5802 5802 5801 5801 5800 5800 5800 5798 5798 5796 5796 5794 5793 5792 5790 5789 5788 5786 5785 5783 5781 5779 5777 5775 5772 5770 5768 5766 5764 5761 5759 5756 5754 5752 5748 5746 5743 5740 5737 5734 5732 5728 5725 5722 5720 5715 5711 5710 5706 5700 5696 5691 5688 5686 5683 5680 5677 5674 5672
5806 5806 5807 5807 5807 5807 5807 5807 5807 5807 5807 5807 5807 5806 5806 5806 5806 5806 5806 5805 5804 5804 5804 5804 5803 5802 5802 5801 5800 5800 5800 5800 5799 5798 5798 5797 5796 5796 5794 5793 5792 5790 5789 5788 5786 5785 5784 5782 5780 5778 5776 5773 5771 5769 5767 5764 5762 5759 5756 5754 5752 5749 5747 5744 5742 5739 5735 5732 5728 5726 5724 5720 5716 5714 5710 5705 5704 5700 5695 5690 5686 5682 5680 5678 5674 5671 5668 5665
5806 5806 5806 5806 5806 5806 5806 5806 5806 5806 5806 5806 5806 5806 5806 5805 5805 5804 5804 5804 5804 5803 5802 5802 5802 5800 5800 5800 5799 5798 5798 5798 5797 5796 5796 5795 5794 5793 5792 5790 5789 5788 5786 5786 5784 5782 5781 5778 5776 5774 5772 5770 5768 5766 5763 5760 5758 5755 5752 5750 5746 5744 5741 5738 5736 5734 5730 5726 5722 5719 5717 5714 5711 5708 5704 5700 5697 5693 5689 5686 5682 5678 5676 5672 5669 5665 5662 5660
5805 5805 5806 5806 5806 5806 5806 5806 5806 5806 5806 5806 5806 5805 5804 5804 5804 5804 5804 5803 5802 5802 5801 5800 5800 5799 5798 5798 5798 5797 5796 5796 5795 5794 5794 5792 5792 5790 5789 5788 5786 5784 5783 5782 5780 5779 5778 5776 5774 5771 5768 5766 5764 5762 5759 5756 5754 5751 5748 5745 5742 5738 5734 5732 5730 5728 5724 5720 5716 5714 5711 5708 5706 5703 5699 5694 5690 5686 5683 5680 5677 5674 5672 5668 5664 5660 5656 5653
5804 5804 5805 5805 5806 5806 5806 5805 5805 5805 5805 5804 5804 5804 5804 5804 5803 5802 5802 5802 5802 5800 5800 5800 5798 5798 5797 5796 5796 5796 5794 5794 5793 5792 5792 5790 5789 5788 5786 5785 5784 5782 5780 5778 5776 5776 5774 5772 5770 5768 5766 5763 5760 5758 5755 5752 5750 5747 5744 5740 5737 5734 5730 5726 5724 5722 5719 5714 5711 5709 5706 5703 5702 5698 5694 5688 5683 5680 5678 5674 5672 5668 5666 5662 5658 5655 5650 5646
5804 5804 5804 5804 5805 5805 5805 5804 5804 5804 5804 5804 5804 5803 5803 5802 5802 5802 5801 5800 5800 5800 5798 5798 5797 5796 5796 5795 5794 5794 5793 5792 5792 5790 5789 5788 5786 5785 5784 5782 5781 5779 5778 5776 5774 5772 5770 5768 5766 5764 5762 5759 5756 5754 5750 5747 5744 5742 5740 5736 5732 5730 5724 5721 5718 5716 5713 5708 5706 5705 5702 5700 5698 5695 5688 5682 5677 5674 5672 5668 5666 5663 5660 5657 5653 5648 5644 5640
5804 5804 5804 5804 5804 5804 5804 5804 5804 5804 5804 5803 5803 5802 5802 5801 5801 5800 5800 5800 5798 5798 5797 5796 5796 5795 5794 5794 5792 5792 5791 5790 5789 5788 5786 5786 5784 5782 5781 5780 5778 5776 5774 5772 5770 5768 5766 5764 5762 5760 5758 5754 5752 5748 5746 5742 5740 5737 5734 5730 5727 5724 5720 5716 5712 5710 5708 5702 5698 5699 5697 5696 5695 5690 5683 5678 5673 5670 5666 5662 5660 5658 5655 5652 5647 5642 5638 5635
5803 5803 5804 5804 5804 5804 5804 5803 5803 5803 5802 5802 5802 5801 5800 5800 5800 5800 5798 5798 5797 5796 5796 5795 5794 5794 5792 5792 5791 5790 5789 5788 5787 5786 5784 5783 5781 5780 5778 5776 5775 5774 5772 5770 5767 5765 5762 5760 5759 5756 5753 5750 5748 5744 5742 5739 5736 5732 5729 5726 5722 5718 5714 5710 5707 5704 5702 5696 5692 5692 5692 5692 5690 5684 5677 5673 5669 5665 5662 5658 5656 5654 5650 5646 5642 5638 5634 5630
5802 5802 5803 5803 5803 5802 5802 5802 5802 5802 5802 5801 5800 5800 5800 5799 5798 5798 5797 5796 5796 5795 5794 5794 5792 5792 5791 5790 5789 5788 5786 5786 5784 5783 5782 5780 5778 5777 5775 5774 5772 5770 5768 5766 5764 5761 5758 5756 5755 5753 5750 5746 5744 5740 5738 5734 5731 5728 5724 5721 5717 5712 5709 5706 5702 5700 5696 5690 5685 5683 5684 5688 5686 5679 5672 5668 5664 5660 5657 5654 5652 5649 5645 5640 5636 5632 5628 5624
5802 5802 5802 5802 5802 5802 5802 5802 5801 5801 5800 5800 5800 5799 5798 5798 5797 5796 5796 5795 5794 5794 5792 5792 5791 5790 5789 5788 5787 5786 5784 5783 5782 5780 5778 5777 5776 5774 5772 5770 5768 5766 5764 5762 5760 5757 5754 5752 5750 5749 5746 5742 5739 5736 5732 5729 5726 5722 5719 5716 5712 5708 5704 5700 5698 5696 5691 5686 5680 5675 5674 5680 5680 5674 5668 5662 5658 5655 5652 5648 5646 5642 5638 5632 5629 5625 5620 5616
5802 5802 5802 5801 5801 5800 5800 5800 5800 5800 5800 5799 5798 5798 5797 5796 5796 5795 5794 5794 5792 5792 5791 5790 5789 5788 5787 5786 5784 5784 5782 5780 5779 5778 5776 5774 5772 5770 5769 5766 5764 5762 5760 5758 5756 5752 5750 5748 5746 5744 5740 5737 5734 5730 5726 5724 5720 5717 5714 5710 5706 5704 5700 5696 5693 5692 5688 5682 5678 5671 5667 5672 5673 5667 5661 5656 5652 5648 5645 5642 5638 5634 5630 5626 5621 5616 5612 5608
5801 5801 5800 5800 5800 5800 5800 5800 5799 5799 5798 5798 5797 5796 5796 5795 5794 5794 5792 5792 5791 5790 5789 5788 5787 5786 5785 5784 5782 5781 5780 5778 5776 5774 5773 5771 5769 5767 5765 5763 5761 5758 5756 5754 5751 5748 5746 5743 5741 5738 5736 5732 5729 5725 5722 5718 5716 5712 5709 5706 5702 5698 5696 5690 5686 5686 5683 5679 5676 5669 5662 5667 5669 5662 5655 5651 5646 5643 5640 5636 5632 5628 5623 5619 5614 5609 5604 5600
5800 5800 5800 5800 5800 5799 5798 5798 5798 5798 5797 5796 5796 5796 5794 5794 5793 5792 5791 5790 5790 5788 5787 5786 5785 5784 5782 5781 5780 5778 5777 5776 5774 5772 5770 5768 5766 5764 5762 5759 5757 5754 5752 5749 5746 5744 5741 5738 5736 5734 5731 5728 5724 5720 5716 5714 5712 5708 5704 5701 5698 5694 5692 5687 5682 5679 5676 5674 5672 5666 5658 5661 5663 5657 5650 5645 5640 5636 5633 5629 5625 5621 5617 5612 5608 5604 5598 5593
5800 5800 5800 5799 5799 5798 5798 5798 5797 5796 5796 5796 5794 5794 5793 5792 5792 5790 5790 5788 5788 5786 5786 5784 5783 5782 5780 5778 5777 5776 5774 5772 5771 5769 5766 5764 5762 5760 5758 5755 5752 5750 5748 5744 5742 5740 5736 5734 5730 5728 5727 5724 5720 5715 5712 5710 5708 5704 5700 5696 5694 5690 5688 5684 5680 5675 5670 5668 5667 5661 5654 5654 5654 5650 5644 5638 5634 5630 5626 5622 5618 5615 5612 5607 5602 5597 5592 5588
5800 5799 5799 5798 5798 5798 5798 5797 5796 5796 5795 5794 5794 5792 5792 5791 5790 5789 5788 5787 5786 5784 5783 5782 5780 5779 5778 5776 5774 5772 5770 5769 5768 5766 5763 5760 5758 5756 5754 5751 5748 5746 5743 5740 5738 5735 5732 5729 5725 5722 5720 5718 5716 5712 5709 5707 5704 5700 5696 5693 5690 5687 5684 5680 5677 5672 5667 5664 5662 5658 5652 5649 5646 5645 5640 5632 5629 5626 5622 5617 5613 5609 5606 5602 5598 5592 5586 5581
5799 5798 5798 5798 5798 5797 5796 5796 5796 5794 5794 5793 5792 5791 5790 5790 5788 5788 5786 5785 5784 5782 5781 5780 5778 5776 5774 5773 5772 5770 5768 5766 5764 5762 5760 5756 5754 5752 5750 5746 5744 5741 5738 5736 5733 5730 5728 5726 5721 5718 5714 5710 5708 5706 5704 5702 5700 5697 5694 5690 5686 5684 5680 5676 5672 5668 5663 5658 5656 5653 5650 5646 5643 5640 5633 5628 5624 5621 5617 5614 5608 5604 5599 5594 5589 5584 5579 5574
5798 5798 5798 5797 5797 5796 5796 5795 5794 5794 5792 5792 5790 5790 5789 5788 5786 5786 5784 5782 5782 5780 5778 5777 5775 5774 5772 5770 5769 5767 5765 5762 5760 5758 5756 5753 5750 5748 5745 5742 5739 5736 5734 5731 5728 5726 5725 5722 5718 5715 5711 5706 5702 5700 5698 5696 5694 5692 5688 5685 5682 5678 5676 5672 5668 5664 5659 5654 5650 5648 5643 5640 5640 5634 5626 5622 5618 5614 5610 5606 5602 5597 5592 5586 5580 5575 5570 5564
5798 5798 5797 5796 5796 5796 5794 5794 5793 5792 5791 5790 5789 5788 5787 5786 5784 5784 5782 5780 5779 5778 5776 5774 5772 5771 5769 5768 5766 5764 5762 5760 5757 5754 5752 5749 5746 5743 5740 5738 5735 5732 5730 5726 5724 5722 5721 5719 5716 5714 5710 5704 5700 5697 5694 5690 5688 5685 5682 5680 5676 5673 5670 5666 5663 5659 5654 5649 5646 5644 5637 5632 5632 5628 5620 5614 5610 5606 5602 5598 5593 5588 5583 5578 5572 5566 5562 5556
5797 5796 5796 5796 5795 5794 5794 5792 5792 5790 5790 5788 5788 5786 5785 5784 5782 5781 5780 5778 5776 5775 5774 5772 5770 5768 5766 5764 5762 5760 5758 5756 5754 5750 5748 5744 5742 5738 5736 5734 5730 5728 5726 5723 5720 5718 5716 5715 5712 5711 5708 5702 5697 5694 5690 5686 5684 5680 5676 5674 5671 5668 5664 5661 5658 5654 5650 5644 5640 5636 5632 5626 5624 5620 5615 5609 5603 5598 5594 5590 5586 5580 5574 5569 5564 5559 5554 5548
5796 5796 5796 5794 5794 5793 5792 5791 5790 5789 5788 5786 5786 5784 5783 5782 5780 5779 5778 5776 5774 5772 5771 5769 5767 5765 5763 5761 5759 5756 5754 5752 5750 5746 5744 5740 5738 5734 5732 5730 5727 5724 5722 5720 5717 5714 5712 5710 5708 5707 5706 5700 5695 5691 5688 5684 5680 5676 5673 5670 5666 5662 5658 5656 5652 5648 5644 5638 5634 5630 5627 5623 5618 5614 5609 5604 5596 5590 5586 5582 5579 5573 5566 5560 5556 5552 5546 5539
5796 5795 5794 5794 5792 5792 5790 5790 5788 5787 5786 5784 5784 5782 5781 5780 5778 5776 5775 5774 5772 5770 5768 5766 5764 5762 5760 5758 5755 5752 5750 5748 5745 5742 5740 5736 5734 5730 5728 5726 5724 5722 5718 5716 5714 5710 5708 5706 5704 5702 5701 5698 5692 5688 5685 5680 5676 5673 5669 5666 5662 5658 5654 5650 5646 5643 5638 5634 5628 5624 5620 5618 5614 5608 5603 5598 5590 5584 5578 5576 5573 5568 5560 5552 5546 5542 5536 5530
5795 5794 5793 5792 5791 5790 5789 5788 5786 5785 5784 5783 5782 5780 5779 5778 5776 5774 5772 5770 5769 5767 5765 5762 5760 5758 5756 5754 5751 5748 5746 5743 5740 5738 5735 5732 5730 5727 5725 5722 5720 5718 5716 5712 5710 5706 5703 5701 5698 5696 5694 5693 5689 5684 5682 5677 5672 5668 5665 5661 5658 5653 5648 5644 5640 5636 5632 5627 5623 5618 5613 5610 5606 5602 5598 5593 5586 5578 5570 5566 5564 5559 5552 5544 5536 5530 5526 5520
5794 5792 5792 5790 5790 5788 5787 5786 5784 5784 5782 5781 5780 5778 5776 5775 5774 5772 5770 5768 5766 5764 5762 5759 5756 5754 5752 5749 5746 5744 5742 5739 5736 5734 5732 5728 5726 5724 5721 5719 5716 5714 5712 5709 5706 5703 5700 5696 5694 5690 5688 5688 5684 5680 5676 5672 5668 5664 5660 5656 5652 5648 5643 5638 5634 5630 5626 5619 5614 5610 5606 5600 5597 5594 5590 5588 5583 5575 5564 5556 5552 5546 5540 5536 5528 5520 5514 5509